This is the latest recevied weather packets stored in our database for station/object WD4IXD. If no packets are shown the sender has not sent any weather packets the latest 10 day(s).
| Time | Temp. | Humidity | Pressure | Rain* | Wind** | Luminosity | Snow |
|---|---|---|---|---|---|---|---|
| 1777729815 | 7.78° C | 51% | 1022.9 hPa | 0 mm | - | 299 W/m² | - |
| 1777729503 | 7.22° C | 52% | 1022.9 hPa | 0 mm | - | 283 W/m² | - |
| 1777729215 | 6.67° C | 53% | 1022.9 hPa | 0 mm | - | 246 W/m² | - |
| 1777728915 | 6.11° C | 54% | 1022.9 hPa | 0 mm | - | 35 W/m² | - |
| 1777728603 | 6.11° C | 55% | 1022.9 hPa | 0 mm | - | 28 W/m² | - |
| 1777728315 | 5.56° C | 55% | 1022.9 hPa | 0 mm | - | 26 W/m² | - |
| 1777728004 | 5.56° C | 55% | 1022.9 hPa | 0 mm | - | 54 W/m² | - |
| 1777727715 | 5.56° C | 56% | 1022.8 hPa | 0 mm | - | 28 W/m² | - |
| 1777727403 | 5° C | 57% | 1022.8 hPa | 0 mm | - | 35 W/m² | - |
| 1777727115 | 5° C | 56% | 1022.8 hPa | 0 mm | - | 26 W/m² | - |
| 1777726804 | 4.44° C | 57% | 1022.8 hPa | 0 mm | - | 26 W/m² | - |
| 1777726515 | 4.44° C | 57% | 1022.7 hPa | 0 mm | - | 21 W/m² | - |
| 1777726215 | 4.44° C | 57% | 1022.7 hPa | 0 mm | - | 19 W/m² | - |
| 1777725904 | 4.44° C | 56% | 1022.6 hPa | 0 mm | - | 19 W/m² | - |
| 1777725615 | 4.44° C | 57% | 1022.5 hPa | 0 mm | - | 26 W/m² | - |
| 1777725304 | 4.44° C | 58% | 1022.5 hPa | 0 mm | - | 18 W/m² | - |
| 1777725015 | 3.89° C | 58% | 1022.5 hPa | 0 mm | - | 14 W/m² | - |
| 1777724704 | 3.89° C | 58% | 1022.4 hPa | 0 mm | - | 12 W/m² | - |
| 1777724415 | 4.44° C | 57% | 1022.3 hPa | 0 mm | - | 12 W/m² | - |
| 1777724115 | 3.89° C | 58% | 1022.3 hPa | 0 mm | - | 9 W/m² | - |
| 1777723815 | 3.89° C | 58% | 1022.3 hPa | 0 mm | - | 7 W/m² | - |
| 1777723504 | 3.89° C | 57% | 1022.3 hPa | 0 mm | - | 5 W/m² | - |
| 1777723215 | 4.44° C | 56% | 1022.3 hPa | 0 mm | - | 0 W/m² | - |
| 1777722904 | 4.44° C | 56% | 1022.3 hPa | 0 mm | - | 0 W/m² | - |
| 1777722615 | 4.44° C | 56% | 1022.3 hPa | 0 mm | - | 0 W/m² | - |
* Rain latest hour (hover to see other rain measurements)
** Current wind speed in m/s (hover to see current wind gust speed)